Vertical_Velocity
1 -2 -1 1 0 1 -1 -1 -3 1 -3 -5 -2 -5 -5 4 3 -3 -3 1 3 -2 1 0 -1 -1 -1 0 1 1 0 -1 0 1 1 -1 -2 -2 -1 -0 -1 -1 -1 -2
1 -0 -0 -1 -0 -1 -2 -1 -3 1 -2 -3 -0 -5 -0 -0 -2 -1 0 -0 -0 1 0 0 1 0 1 1 1 1 1 -0 1 1 2 2 1 2 2 0 -0 0 -0 -1
-0 -0 1 -0 -2 -1 0 -1 1 -1 -1 -1 -6 -3 2 -1 2 0 -0 -0 1 -1 0 0 -0 1 1 1 1 0 -1 -0 0 1 0 -2 -1 -1 -0 -2 -3 -3 -1 -0
-1 0 1 0 -1 1 3 -0 -2 -4 -1 -2 0 -6 -1 1 -1 -2 1 3 2 1 1 0 2 2 1 0 -1 -1 -1 1 0 1 -1 0 -0 1 -1 1 0 -0 0 -2
-1 0 -1 1 1 -1 -2 -3 -3 1 0 -0 -0 1 -0 3 -3 -1 1 -1 -2 -1 2 3 1 1 -1 -1 -2 -1 -1 -0 -0 -1 -0 -0 -1 -1 -1 -2 -1 -2 -2 -1
-0 -0 0 0 -1 1 -1 -5 0 1 0 -0 -0 2 2 -3 -0 1 3 -0 -1 1 0 0 2 1 -0 -2 -1 -0 0 1 0 -0 -1 -1 -0 -0 0 -2 -1 -1 -1 -2
1 0 -0 -1 -1 -2 -1 1 -1 -6 -2 -7 -0 -0 0 -0 1 1 -1 -0 1 1 1 1 1 1 -0 -1 -1 -1 -0 -0 0 0 -1 0 -0 -1 -1 -1 -1 0 -1 -1
-1 -3 -1 -0 0 0 1 1 0 -4 -2 -4 -0 -4 -1 1 1 -2 -2 -0 -1 0 0 -0 -1 -1 -2 -0 1 0 1 2 0 -0 0 0 -1 -2 -1 -2 -2 -1 -0 -1
1 1 1 0 -1 0 0 1 1 -0 -0 0 1 -1 -2 -2 -3 -1 -1 0 2 2 2 0 -0 -0 1 1 -2 -1 0 0 -2 -2 -2 -1 -1 -2 -2 -1 -2 -1 -1 -1
-2 1 0 1 1 1 0 -1 -1 0 -3 -2 -3 -3 -3 -2 -1 -1 -1 1 1 -1 -1 -0 -2 -1 -1 -2 -0 -1 -3 -3 -2 -1 -2 -1 1 -1 -2 -1 -0 -1 0 -1
3 1 -1 -2 -2 -1 -0 0 1 0 -0 -4 -1 -4 -1 -1 -1 -0 -0 -1 -1 0 -0 -0 -0 -1 -1 -1 -2 -2 -1 -1 1 -1 0 -1 0 -1 -1 -2 -2 -2 1 -0
-2 -2 -2 -1 1 1 1 -0 -0 -2 -1 0 0 -12 -2 -1 -2 -1 -1 0 -1 -0 -1 -1 -1 -1 -0 -1 0 -0 0 -0 -3 -3 -2 -1 -1 0 -0 1 -0 -3 -1 -0
-1 -0 -1 -0 -0 -0 -2 -0 1 -0 2 -4 -2 -8 -3 -1 -4 -1 -1 -0 0 1 1 -1 -2 -2 0 1 0 -0 -1 -1 -3 -2 -2 0 -0 -1 -0 -0 -0 -0 -1 1
0 -1 -0 -3 -0 0 -3 0 1 3 1 -3 -17 -6 2 1 1 0 -1 -0 0 -1 2 1 1 -1 -2 -2 -2 -0 2 -1 -3 -2 -2 -2 -0 -2 -1 0 1 1 2 0
-0 -2 -3 -1 -1 -2 -2 -2 4 -3 5 -2 -4 -12 12 4 6 3 -1 -0 2 0 -1 -2 0 -1 -2 -1 1 -0 -1 -2 -1 -1 -2 -3 -1 -0 -2 -2 -2 -2 -2 -1
1 -1 -2 -9 1 0 -8 -1 4 4 4 -14 8 -33 -4 4 3 -1 2 5 3 1 -0 1 3 0 -4 -7 -5 -2 -3 -2 -1 -0 -0 0 -0 1 1 -1 -1 -2 -1 -2
1 1 1 -6 -0 1 -10 -2 -1 2 2 6 -5 12 1 1 1 -0 -2 0 1 0 -1 -1 -4 -6 -7 -5 -6 -4 -5 -5 -3 -2 -3 -2 -2 -2 -2 -1 -1 -1 0 -0
0 2 1 -4 1 -3 2 4 3 -3 2 1 -1 2 2 1 1 -1 1 1 0 0 1 2 -0 -1 -1 -2 -1 -2 -4 -3 -2 -1 -1 -0 0 -0 -1 -0 -1 -0 0 -1
2 4 -1 -0 -1 -13 -16 -1 -0 1 -1 5 0 1 0 3 3 4 1 3 2 0 -1 -4 -6 -5 -4 -4 -2 -2 -2 -2 -2 -2 -0 -1 -2 -2 -3 -2 -2 -2 -2 -0
1 3 2 2 1 -2 -4 -2 3 2 -27 -0 3 4 3 1 -4 12 5 3 3 -1 -5 -3 -0 -1 -4 -4 -3 -3 -2 -1 0 -0 -0 -2 -3 -3 -1 1 -1 -1 -3 -3
3 1 -7 8 -1 -14 2 5 3 4 -6 -2 -3 -3 -2 -3 1 -2 1 3 -0 -5 -3 -2 -3 -5 -5 -3 -3 -3 -4 -3 -3 -2 -1 -1 -1 -2 -1 -3 -2 -2 -1 1
4 2 -3 5 -0 -17 1 -1 2 1 3 -0 1 1 -0 4 3 1 -5 -8 -8 -6 -3 -0 -0 1 2 2 0 -1 -1 -1 -3 -2 1 1 1 0 -0 -2 -1 1 -2 -3
-3 -4 5 -2 -6 6 8 4 0 3 1 1 1 -2 -3 -4 -4 -3 -2 -1 -1 -2 -1 -4 -3 -0 4 2 2 3 2 -1 -1 -1 -3 -3 -0 1 2 -2 -1 -2 -1 -1
1 7 -4 15 -4 0 6 10 3 3 -0 1 1 1 0 -0 -4 -5 -6 -5 -3 -3 -3 -3 -2 0 0 0 1 0 1 1 0 -1 0 2 1 1 4 5 2 -2 -1 -1
-4 5 2 9 -0 -1 10 10 13 6 6 4 3 -0 3 -1 2 -1 1 -1 -4 -2 -4 -2 -1 0 1 -1 2 2 1 -2 -1 -1 0 1 -2 -2 -4 -1 -4 -2 11 -3
5 1 5 -15 6 4 1 -6 -3 -5 -2 -1 -1 -3 5 -4 0 -3 -2 -1 -1 -1 -0 -1 -2 -7 -4 -1 1 2 3 -4 -5 -4 -4 -5 -8 -5 -5 -9 -10 11 -4 1
Height
3140 3143 3144 3146 3147 3147 3148 3149 3150 3150 3148 3146 3143 3142 3140 3137 3134 3132 3130 3131 3133 3133 3133 3134 3134 3134 3133 3132 3131 3129 3127 3125 3123 3121 3119 3116 3114 3111 3109 3106 3103 3099 3096 3092
3141 3141 3143 3144 3145 3146 3147 3146 3147 3146 3145 3143 3140 3139 3136 3133 3131 3129 3129 3130 3131 3131 3132 3133 3133 3132 3132 3130 3128 3126 3124 3122 3120 3118 3116 3114 3112 3109 3106 3102 3099 3095 3091 3087
3139 3141 3141 3142 3144 3145 3144 3144 3145 3144 3142 3139 3138 3134 3132 3131 3129 3127 3128 3129 3130 3130 3131 3131 3131 3131 3130 3128 3126 3124 3121 3118 3116 3114 3112 3110 3107 3104 3101 3098 3094 3090 3087 3083
3139 3140 3140 3141 3142 3143 3142 3142 3142 3141 3140 3138 3138 3134 3130 3127 3125 3126 3128 3129 3129 3129 3130 3130 3130 3129 3128 3126 3123 3119 3116 3114 3112 3110 3109 3106 3103 3101 3098 3095 3090 3086 3083 3079
3138 3138 3139 3140 3140 3141 3141 3140 3140 3138 3136 3135 3134 3134 3126 3124 3124 3125 3126 3127 3127 3128 3128 3128 3127 3126 3125 3121 3118 3115 3112 3110 3108 3107 3105 3102 3099 3097 3094 3090 3087 3082 3078 3075
3137 3138 3138 3138 3138 3138 3138 3139 3138 3134 3134 3133 3130 3131 3123 3122 3123 3123 3124 3125 3126 3127 3126 3125 3124 3123 3121 3118 3115 3112 3110 3107 3105 3103 3101 3099 3096 3093 3090 3086 3083 3079 3074 3070
3135 3136 3136 3137 3137 3136 3137 3138 3135 3136 3134 3131 3128 3128 3121 3121 3121 3122 3122 3122 3124 3124 3124 3123 3122 3120 3118 3115 3112 3110 3107 3104 3102 3100 3097 3095 3092 3089 3085 3082 3078 3075 3071 3066
3134 3135 3134 3134 3134 3135 3135 3136 3134 3138 3136 3128 3126 3122 3119 3119 3119 3119 3120 3121 3122 3122 3122 3121 3120 3117 3115 3112 3110 3107 3105 3102 3100 3097 3094 3090 3087 3083 3080 3076 3072 3068 3065 3061
3133 3132 3131 3132 3132 3135 3133 3133 3133 3132 3131 3129 3122 3119 3118 3116 3117 3117 3117 3119 3120 3120 3119 3118 3116 3114 3112 3109 3106 3103 3101 3099 3095 3092 3088 3085 3081 3077 3074 3070 3065 3061 3057 3054
3131 3131 3129 3129 3130 3131 3131 3133 3132 3130 3131 3131 3119 3117 3114 3114 3114 3114 3115 3116 3117 3117 3117 3115 3113 3110 3107 3104 3101 3099 3096 3093 3090 3087 3082 3078 3074 3069 3066 3062 3058 3054 3050 3046
3129 3129 3130 3129 3128 3128 3129 3128 3129 3129 3128 3128 3127 3115 3113 3113 3112 3112 3112 3112 3113 3113 3112 3110 3108 3105 3102 3099 3096 3094 3091 3088 3085 3080 3074 3070 3066 3062 3058 3054 3050 3047 3043 3039
3128 3127 3126 3126 3125 3125 3125 3125 3125 3126 3127 3125 3124 3114 3111 3110 3108 3108 3108 3108 3109 3108 3106 3105 3102 3098 3096 3093 3091 3088 3085 3081 3076 3071 3066 3062 3057 3054 3050 3046 3042 3038 3035 3032
3126 3125 3124 3122 3124 3122 3121 3121 3122 3122 3123 3119 3120 3110 3108 3107 3106 3106 3105 3104 3103 3102 3100 3098 3095 3092 3090 3087 3084 3081 3077 3073 3069 3064 3059 3055 3050 3046 3041 3037 3033 3029 3026 3023
3123 3121 3121 3121 3120 3120 3119 3118 3118 3118 3116 3110 3104 3105 3104 3104 3102 3102 3101 3099 3098 3096 3095 3092 3090 3086 3084 3081 3077 3073 3070 3065 3061 3056 3051 3046 3042 3037 3033 3029 3025 3021 3017 3014
3120 3118 3117 3116 3116 3114 3112 3111 3111 3107 3107 3105 3098 3097 3099 3100 3099 3097 3095 3092 3091 3090 3089 3086 3084 3080 3078 3076 3071 3066 3061 3056 3051 3047 3042 3038 3033 3028 3024 3020 3016 3012 3008 3005
3116 3114 3112 3110 3110 3106 3102 3101 3099 3097 3097 3095 3093 3087 3091 3089 3090 3090 3090 3087 3085 3084 3082 3080 3078 3074 3069 3065 3061 3056 3051 3046 3042 3037 3032 3028 3025 3021 3016 3012 3009 3005 3001 2997
3113 3111 3109 3105 3103 3102 3097 3090 3089 3089 3089 3089 3086 3086 3085 3083 3083 3084 3083 3081 3079 3077 3075 3073 3070 3065 3060 3056 3052 3048 3044 3039 3034 3029 3025 3021 3017 3014 3009 3005 3000 2996 2993 2989
3107 3108 3108 3103 3101 3101 3090 3088 3086 3085 3083 3082 3081 3080 3080 3079 3078 3076 3075 3074 3073 3070 3067 3063 3058 3053 3050 3046 3042 3038 3033 3029 3026 3022 3018 3014 3010 3007 3003 2999 2994 2989 2986 2981
3102 3104 3105 3102 3097 3091 3087 3083 3082 3079 3080 3077 3076 3075 3074 3073 3072 3070 3069 3068 3066 3062 3058 3054 3051 3045 3041 3037 3033 3029 3025 3022 3018 3015 3012 3007 3003 3000 2996 2992 2987 2982 2979 2974
3098 3099 3102 3099 3097 3090 3083 3081 3078 3076 3073 3071 3071 3070 3069 3069 3067 3069 3064 3061 3059 3055 3052 3047 3043 3038 3032 3029 3025 3021 3017 3014 3011 3008 3004 3000 2996 2992 2988 2984 2980 2976 2972 2968
3093 3092 3092 3092 3091 3081 3077 3076 3073 3074 3073 3068 3068 3067 3066 3064 3063 3061 3058 3055 3051 3047 3042 3037 3034 3029 3023 3019 3016 3013 3010 3007 3005 3002 2998 2994 2989 2985 2981 2978 2974 2970 2966 2962
3088 3088 3087 3087 3086 3078 3072 3070 3072 3069 3064 3063 3062 3062 3059 3057 3054 3051 3046 3043 3040 3036 3032 3027 3022 3020 3015 3010 3007 3005 3002 2999 2997 2994 2991 2987 2983 2979 2974 2970 2967 2963 2958 2955
3083 3083 3082 3081 3075 3071 3069 3066 3065 3062 3058 3056 3053 3051 3049 3046 3045 3042 3038 3033 3029 3024 3021 3017 3013 3010 3008 3004 2999 2996 2993 2989 2988 2985 2982 2978 2974 2970 2966 2961 2957 2954 2950 2945
3076 3077 3072 3070 3066 3066 3065 3061 3058 3054 3051 3047 3044 3041 3039 3035 3032 3029 3026 3023 3019 3015 3011 3007 3003 3000 2999 2997 2993 2988 2984 2979 2977 2974 2972 2968 2964 2960 2957 2953 2949 2944 2941 2936
3070 3068 3066 3057 3058 3058 3057 3055 3049 3043 3040 3037 3033 3030 3028 3025 3022 3018 3015 3011 3008 3004 3001 2997 2994 2991 2990 2987 2984 2980 2976 2971 2968 2965 2962 2958 2954 2950 2946 2943 2938 2934 2931 2925
3059 3058 3055 3047 3052 3046 3042 3041 3037 3031 3028 3025 3022 3019 3017 3013 3010 3007 3004 3000 2998 2994 2991 2988 2985 2982 2981 2978 2976 2973 2969 2964 2960 2955 2952 2948 2944 2939 2935 2930 2927 2926 2919 2914